Regional Weather Roundup
Issued by NWS Charleston, SC

Current Version | Previous Version | Graphics & Text | Print | Product List | Glossary On
Versions: 1 2 3 4 5 6 7 8 9 10 11 12 13 14 15 16 17 18 19 20 21 22 23 24 25 26 27 28 29 30 31 32 33 34 35 36 37 38 39 40 41 42 43 44 45 46 47 48 49 50
000 ASUS42 KCHS 020228 RWRCHS REGIONAL WEATHER ROUNDUP NATIONAL WEATHER SERVICE CHARLESTON SC 1000 PM EDT SUN MAY 01 2016 NOTE: "FAIR" INDICATES FEW OR NO CLOUDS BELOW 12,000 FEET WITH NO SIGNIFICANT WEATHER AND/OR OBSTRUCTIONS TO VISIBILITY. NOT ALL STATIONS ARE QUALITY CONTROLLED. USE DATA WITH CAUTION... ESPECIALLY DEWPOINT OBSERVATIONS. SCZ027-030-031-034>040-042>050-020300- ...SOUTHEAST SOUTH CAROLINA... CITY SKY/WX TMP DP RH WIND PRES REMARKS N CHARLESTON CLOUDY 74 69 85 S9 30.06R WATERFRONT PRK N/A 74 72 93 S7 30.03F MOUNT PLEASANT FAIR 73 70 88 S6 30.07R JOHNS ISLAND FAIR 73 72 94 S7 30.07R PINOPOLIS N/A 73 70 88 VRB2 29.98R MONCKS CORNER FAIR 68 64 88 S5 30.05S FOG SUMMERVILLE FAIR 72 72 100 S3 30.06R BEAUFORT MCAS CLOUDY 75 72 90 S3 30.06R BEAUFORT ARPT FAIR 73 72 94 S5 30.06R HILTON HEAD IS MOCLDY 75 73 94 S8 30.08S WALTERBORO CLOUDY 72 72 100 S6 30.07R ALLENDALE FAIR 70 68 94 CALM 30.05R ...SOUTHERN MIDLANDS AND PEE DEE... CITY SKY/WX TMP DP RH WIND PRES REMARKS GEORGETOWN FAIR 66 64 94 SE3 30.07S KINGSTREE FAIR 66 63 88 SE3 30.05R ORANGEBURG CLOUDY 69 67 93 S3 30.05R BARNWELL FAIR 72 72 100 CALM 30.06R AIKEN FAIR 68 64 88 SE5 30.08R MANNING NOT AVBL COLUMBIA CLOUDY 72 66 81 SW3 30.03R SUMTER CLOUDY 69 67 92 S6 30.01S FLORENCE PTCLDY 68 65 90 S6 30.03F MYRTLE BEACH MOCLDY 70 61 73 SW8 30.06S N MYRTLE BEACH CLOUDY 70 66 87 S9 30.04R $$ GAZ063-065-086>088-099>101-113>116-118-119-134>141-150-020300- ...SOUTHEAST GEORGIA... CITY SKY/WX TMP DP RH WIND PRES REMARKS SAVANNAH ARPT LGT RAIN 71 67 87 S7 30.07S HUNTER AAF CLOUDY 75 73 94 CALM 30.05R FORT STEWART RAIN 70 68 94 CALM 30.07R STATESBORO CLOUDY 72 70 93 S7 30.05S SYLVANIA CLOUDY 69 68 97 CALM 30.07R CLAXTON LGT RAIN 69 68 96 SE3 30.05F ...CSRA...CENTRAL AND FAR SOUTHEAST GEORGIA... CITY SKY/WX TMP DP RH WIND PRES REMARKS THOMSON CLOUDY 77 69 78 S6 30.09R AUGUSTA-BUSH CLOUDY 71 66 84 S6 30.03R AUGUSTA-DANIEL CLOUDY 74 67 78 S7 30.05R SWAINSBORO FAIR 70 66 88 S7 30.06S VIDALIA CLOUDY 70 64 83 S8 30.07R EASTMAN MOCLDY 75 68 78 S8 30.09R HAZLEHURST FAIR 72 68 87 SE7 30.06R ALMA CLOUDY 70 67 90 E6 30.07R WAYCROSS MOCLDY 70 70 100 E8 30.08R JESUP RAIN 72 70 94 E5 30.09F BAXLEY CLOUDY 70 68 94 SE6 30.07S BRUNSWICK CLOUDY 77 73 88 N3 30.10R SAINT SIMONS PTCLDY 75 73 93 SE6 30.07R $$ SCZ027-028-034-036>038-045-046-048>050-GAZ119-141-020300- ...LAKE AND SUPPLEMENTAL COASTAL OBSERVATIONS... STATION/POSITION TIME TEMP WIND PRES WAVE SWELL AIR SEA DIR/SP/G HT/PER HT/PER/DIR (UTC) (F) (DEG/KT/KT) (MB) (FT/S) (FT/S/D) WINYAH BAY 0100 71 160/ 5 1017.0S LAKE MURRAY 0100 74 160/ 9/ 12 1015.9S ACE BASIN NERRS 0100 74 CALM 1018.0 FORT PULASKI 0200 74 74 150/ 4/ 5 1018.6R SAPELO ISLAND 0200 74 CALM 1019.0R $$ ANZ835-935-AMZ111-154-330-350-352-354-370-450-454-472-020300- ...C-MAN AND BUOY OBSERVATIONS... STATION/POSITION TIME TEMP WIND PRES WAVE SWELL AIR SEA DIR/SP/G HT/PER HT/PER/DIR (UTC) (F) (DEG/KT/KT) (MB) (FT/S) (FT/S/D) BUOY 41004 0150 75 73 160/ 8/ 8 1018.2R 3/11 3/11 BUOY 41008 NOT AVBL FOLLY BEACH CMAN 0200 74 160/ 9/ 11 1018.2R CAPERS NEARSHORE 0108 73 72 170/ 6/ 8 1018.0R FRIPP NEARSHORE 0208 74 74 170/ 8/ 12 1017.5F STATION/POSITION TIME TEMP WIND PRES WAVE SWELL AIR SEA DIR/SP/G HT/PER HT/PER/DIR (UTC) (F) (DEG/KT/KT) (MB) (FT/S) (FT/S/D) 5E ST. MARYS GA 0121 74 N/A 3/ 5 FRYING PAN BUOY 0200 74 72 170/ 12/ 14 1017.6F BUOY 41025 0150 74 74 190/ 19/ 23 1017.4R 5/ 9 3/ 80/ 9 CAPE LOOKOUT NC 0200 70 190/ 12/ 14 1017.2F BUOY 41002 0150 72 74 140/ 12/ 14 1020.8S 4/10 3/ 10/10 BUOY 41010 0120 77 77 110/ 10/ 12 1018.9R ST AUGUSTINE FL 0200 74 74 140/ 10/ 10 1018.6R $$

USA.gov is the U.S. government's official web portal to all federal, state and local government web resources and services.